Home   Weather   Inuvik   Past weeks

Flag for Canada Past Weather in Inuvik, Northwest Territories, Canada — Yesterday and Last 2 Weeks

Now
-31 °F

Snow flurries. Passing clouds.


Feels Like: -31 °F
Forecast: -34 / -28 °F
Wind: 2 mph from Southeast

Location: Inuvik

Current Time: Jan 18, 2017 at 1:41:15 pm

Latest Report: Jan 18, 2017 at 1:00 pm


Visibility: 15 mi

Pressure: 29.75 "Hg

Humidity: 67%

Dew Point: -38 °F

Location of InuvikLocation

Past Weather in Inuvik — Graph

°F

Inuvik Temperature Yesterday

Maximum temperature yesterday: -17 °F (at 2:00 pm)
Minimum temperature yesterday: -27 °F (at 9:00 pm)
Average temperature yesterday: -20 °F

High & Low Weather Summary for the Past Weeks

 TemperatureHumidityPressure
High34 °F (Jan 3, 3:00 pm)100% (Jan 3, 8:00 pm)30.98 "Hg (Jan 3, 8:00 pm)
Low-36 °F (Jan 18, 9:00 am)59% (Jan 7, 12:00 am)29.36 "Hg (Jan 17, 2:37 am)
Average1 °F81%30.02 "Hg
* Reported Jan 3 12:00 pm — Jan 18 12:00 pm, Inuvik, Weather by CustomWeather, © 2017

Note: Actual official high and low records may vary slightly from our data, if they occured in-between our weather recording intervals... More about our weather records

Advertising

Inuvik Weather History for the Previous 24 Hours

Scroll right to see more
 ConditionsComfort  
Time TempWeatherWind HumidityBarometerVisibility
12:00 pm
Wed, Jan 18
-35 °FSnow flurries. Light fog.3 mph73%29.73 "Hg15 mi
11:00 am-35 °FSnow flurries. Fog.5 mph66%29.73 "Hg15 mi
10:00 am-35 °FSnow flurries. Passing clouds.3 mph73%29.72 "Hg15 mi
9:00 am-36 °FSnow flurries. Clear.2 mph66%29.71 "Hg15 mi
8:00 am-35 °FSnow flurries. Clear.No wind66%29.70 "Hg15 mi
7:00 am-33 °FSnow flurries. Clear.2 mph74%29.69 "Hg15 mi
6:00 am-35 °FSnow flurries. Clear.No wind73%29.67 "Hg15 mi
5:00 am-33 °FSnow flurries. Clear.2 mph74%29.67 "Hg15 mi
4:00 am-33 °FSnow flurries. Clear.No wind74%29.66 "Hg15 mi
3:00 am-33 °FSnow flurries. Clear.2 mph74%29.65 "Hg15 mi
2:00 am-29 °FSnow flurries. Clear.2 mph74%29.64 "Hg15 mi
1:00 am-26 °FSnow flurries. Clear.3 mph67%29.62 "Hg15 mi
12:00 am-27 °FSnow flurries. Clear.5 mph74%29.60 "Hg15 mi
11:00 pm
Tue, Jan 17
-27 °FSnow flurries. Clear.2 mph74%29.58 "Hg15 mi
10:00 pm-26 °FSnow flurries. Passing clouds.No wind67%29.56 "Hg15 mi
9:00 pm-27 °FSnow flurries. Partly cloudy.2 mph74%29.55 "Hg15 mi
8:00 pm-24 °FSnow flurries. Partly cloudy.3 mph75%29.54 "Hg15 mi
7:00 pm-22 °FSnow flurries. Partly cloudy.3 mph75%29.53 "Hg15 mi
6:00 pm-20 °FSnow flurries. Passing clouds.2 mph75%29.52 "Hg15 mi
5:00 pm-18 °FSnow flurries. Scattered clouds.2 mph75%29.51 "Hg15 mi
4:00 pm-18 °FLight snow. Broken clouds.3 mph75%29.49 "Hg15 mi
3:00 pm-18 °FLight snow. Partly sunny.2 mph75%29.49 "Hg15 mi
2:00 pm-17 °FLight snow. Passing clouds.2 mph76%29.47 "Hg10 mi
1:00 pm-18 °FLight snow. Passing clouds.3 mph75%29.48 "Hg12 mi
Weather by CustomWeather, © 2017

See weather overviewHow to use our weather pages